Miscellaneous Local Product
Issued by NWS North Platte, NE

Home | Current Version | Previous Version | Graphics & Text | Print | Product List | Glossary On
Versions: 1 2 3 4 5 6 7 8 9 10 11 12 13 14 15 16 17 18 19 20 21 22 23 24 25 26 27 28 29 30 31 32 33 34 35 36 37 38 39 40 41 42 43 44 45 46 47 48 49 50
000
AXUS43 KLBF 291710
MISLBF


WESTERN AND NORTH CENTRAL NEBRASKA HOURLY WEATHER ROUNDUP
NATIONAL WEATHER SERVICE NORTH PLATTE NE
1200 PM CDT FRI MAY 29 2015

***STATIONS NOT REPORTING VARIABLES SUCH AS SKY/WEATHER OR
PRESSURE ARE PROVIDED BY THE NEBRASKA DEPARTMENT OF
ROADS...RAWS...AND APRS NETWORKS...AND ARE NOT UNDER
NATIONAL WEATHER SERVICE QUALITY CONTROL***

...OBSERVATIONS IN AND NEAR THE EASTERN PANHANDLE OF NEBRASKA...

CITY           SKY/WX    TMP DP  RH WIND       PRES   REMARKS
PINE RIDGE     LGT RAIN  48  45  89 N14G23    30.19R
CHADRON        LGT RAIN  50  47  89 N17G25    30.20R FOG
ALLIANCE       HVY RAIN  52  51  97 NW15G23   30.14R FOG
SIDNEY         CLOUDY    57  51  80 NW14      30.16S
WHITECLAY        N/A     46  44  93 S17         N/A
BIG SPRINGS      N/A     64  56  76 NW8         N/A
$$

...OBSERVATIONS IN NORTH CENTRAL NEBRASKA...

CITY           SKY/WX    TMP DP  RH WIND       PRES   REMARKS
VALENTINE      CLOUDY    54  51  90 N20G31    30.10R
THEDFORD       CLOUDY    62  56  80 N16G26    30.07R
AINSWORTH      LGT RAIN  57  56  97 NW20G28   30.07R
O`NEILL        CLOUDY    65  62  88 NW15      29.97S
ORD            PTSUNNY   70  59  68 NW18G24   29.96F
BROKEN BOW     PTSUNNY   70  57  63 N16       30.00F
BROWNLEE         N/A     57  55  95 W25         N/A
VALENTINE NWR    N/A     54  54  99 N16G26      N/A
SPRINGVIEW       N/A     59  55  87 NW12G20     N/A
HALSEY           N/A     64  56  77 NW9G16      N/A
BREWSTER         N/A     67  60  78 E25         N/A
ROSE             N/A     61  60  97 SW15        N/A
NEWPORT          N/A     60  59  97 NW17        N/A
SARGENT          N/A     68  59  74 N3G13       N/A
COMSTOCK         N/A     76  63  64 E15         N/A
EWING            N/A     69  63  81 NW9G17      N/A
$$

...OBSERVATIONS IN SOUTHWEST NEBRASKA AND FAR NORTHEAST COLORADO...

CITY           SKY/WX    TMP DP  RH WIND       PRES   REMARKS
WRAY           FAIR      68  53  59 N12       30.12S
HOLYOKE        PTSUNNY   66  52  59 NW15G21   30.12S
IMPERIAL       MOSUNNY   68  54  60 NW17      30.09R
OGALLALA       PTSUNNY   65  54  67 N17       30.10R
NORTH PLATTE   PTSUNNY   67  55  65 N13G20    30.05R
MCCOOK         PTSUNNY   72  55  55 NW14      30.04R
LEXINGTON      MOSUNNY   71  59  66 NW14      30.01R
PAXTON           N/A     66  57  72 NW9         N/A
GOTHENBURG       N/A     68  53  58 N12         N/A
CALLAWAY         N/A     67  61  81 N12         N/A
$$

...NORTH PLATTE AREA...

CITY           SKY/WX    TMP DP  RH WIND       PRES   REMARKS
AIRPORT        PTSUNNY   67  55  65 N13G20    30.05R
DOWNTOWN         N/A     67  56  69 N8G15       N/A
$$

...SOME WEATHER OBSERVATIONS FROM AROUND THE REGION...

CITY           SKY/WX    TMP DP  RH WIND       PRES   REMARKS
DENVER         PTSUNNY   62  45  53 NE10      30.21S
LARAMIE        CLOUDY    48  39  71 N17       30.27S
CHEYENNE       PTSUNNY   56  39  53 N17G25    30.22S
SCOTTSBLUFF    RAIN      53  52  96 NW6       30.18R FOG
RAPID CITY     CLOUDY    47  45  93 N24G33    30.23R
PIERRE         LGT RAIN  50  48  93 N28       30.12R
WINNER         CLOUDY    57  51  80 N24G36    30.07R
SIOUX FALLS    CLOUDY    70  63  78 NE5       29.90S
OMAHA          CLOUDY    73  61  65 S12       29.92S
GRAND ISLAND   MOSUNNY   72  58  61 N12       29.97R
KANSAS CITY    LGT RAIN  68  65  90 SW13      30.01R
WICHITA        CLOUDY    73  64  73 S6        29.98R
HAYS           MOSUNNY   72  55  56 NW8       30.01R
LIBERAL        MOSUNNY   72  59  64 NE13      30.06S
GOODLAND       MOSUNNY   68  54  60 N14       30.11R
$$



USA.gov is the U.S. government's official web portal to all federal, state and local government web resources and services.